QPF
0.00 0.00 0.00 0.00 0.00 0.00 0.00 0.00 0.00 0.04 0.03 0.00 0.00 0.00 0.01 0.02 0.03 0.07 0.06 0.05 0.04 0.02 0.00 0.00 0.00 0.00 0.00 0.00 0.00 0.00 0.00 0.00 0.00 0.00 0.00 0.00 0.00 0.00 0.00 0.00 0.00 0.00 0.00 0.00 0.00 0.00 0.00 0.00 0.00
0.00 0.00 0.00 0.00 0.00 0.00 0.00 0.00 0.00 0.02 0.02 0.01 0.01 0.01 0.00 0.00 0.01 0.07 0.10 0.16 0.06 0.00 0.00 0.00 0.00 0.01 0.00 0.02 0.02 0.00 0.00 0.00 0.00 0.00 0.00 0.00 0.00 0.00 0.00 0.00 0.00 0.00 0.00 0.00 0.00 0.00 0.00 0.00 0.00
0.00 0.00 0.00 0.00 0.00 0.00 0.00 0.00 0.00 0.00 0.00 0.01 0.02 0.00 0.00 0.00 0.00 0.05 0.09 0.13 0.15 0.04 0.02 0.00 0.00 0.01 0.03 0.06 0.05 0.00 0.00 0.00 0.00 0.00 0.00 0.00 0.00 0.00 0.00 0.00 0.00 0.00 0.00 0.00 0.00 0.00 0.00 0.00 0.00
0.00 0.00 0.00 0.00 0.00 0.00 0.00 0.00 0.01 0.00 0.00 0.00 0.01 0.01 0.00 0.00 0.00 0.00 0.02 0.05 0.15 0.17 0.18 0.02 0.01 0.03 0.07 0.13 0.04 0.00 0.00 0.00 0.00 0.00 0.00 0.00 0.00 0.00 0.00 0.00 0.00 0.00 0.00 0.00 0.00 0.00 0.00 0.00 0.00
0.00 0.00 0.00 0.00 0.00 0.00 0.00 0.00 0.01 0.01 0.01 0.00 0.00 0.00 0.01 0.00 0.00 0.00 0.00 0.09 0.35 0.49 0.41 0.03 0.06 0.05 0.14 0.15 0.02 0.00 0.00 0.00 0.00 0.00 0.00 0.00 0.00 0.00 0.00 0.00 0.00 0.00 0.00 0.00 0.00 0.00 0.00 0.00 0.00
0.00 0.00 0.00 0.00 0.00 0.00 0.00 0.00 0.00 0.03 0.02 0.00 0.00 0.00 0.02 0.00 0.00 0.00 0.04 0.15 0.75 0.55 0.65 0.12 0.09 0.10 0.16 0.08 0.00 0.00 0.00 0.00 0.00 0.00 0.00 0.00 0.00 0.00 0.00 0.00 0.00 0.00 0.00 0.00 0.00 0.00 0.00 0.00 0.00
0.00 0.00 0.00 0.00 0.00 0.00 0.00 0.01 0.02 0.01 0.01 0.00 0.00 0.00 0.01 0.02 0.00 0.04 0.19 0.40 0.77 1.18 0.55 0.10 0.05 0.06 0.11 0.00 0.00 0.00 0.00 0.00 0.00 0.00 0.00 0.00 0.00 0.00 0.00 0.00 0.00 0.00 0.00 0.00 0.00 0.00 0.00 0.00 0.00
0.00 0.00 0.00 0.00 0.00 0.01 0.00 0.00 0.02 0.01 0.03 0.00 0.00 0.06 0.02 0.01 0.04 0.16 0.21 0.48 0.39 1.06 0.30 0.06 0.14 0.04 0.01 0.00 0.00 0.00 0.00 0.00 0.00 0.00 0.00 0.00 0.00 0.00 0.00 0.00 0.00 0.00 0.00 0.00 0.00 0.00 0.00 0.00 0.00
0.00 0.00 0.00 0.00 0.00 0.01 0.00 0.00 0.00 0.00 0.00 0.00 0.01 0.01 0.00 0.00 0.03 0.08 0.18 0.67 0.55 0.27 0.10 0.18 0.13 0.03 0.00 0.00 0.00 0.00 0.00 0.00 0.00 0.00 0.00 0.00 0.00 0.00 0.00 0.00 0.00 0.00 0.00 0.00 0.00 0.00 0.00 0.00 0.00
0.00 0.00 0.00 0.00 0.00 0.02 0.00 0.00 0.00 0.00 0.02 0.02 0.00 0.00 0.00 0.01 0.02 0.05 0.07 0.14 0.16 0.06 0.03 0.04 0.06 0.04 0.01 0.00 0.00 0.00 0.00 0.00 0.00 0.00 0.00 0.00 0.00 0.00 0.00 0.00 0.00 0.00 0.00 0.00 0.00 0.00 0.00 0.00 0.00
0.00 0.00 0.00 0.00 0.00 0.03 0.01 0.00 0.00 0.00 0.04 0.02 0.00 0.00 0.01 0.01 0.02 0.04 0.06 0.07 0.05 0.03 0.01 0.00 0.02 0.00 0.00 0.00 0.00 0.00 0.00 0.00 0.00 0.01 0.02 0.02 0.01 0.00 0.00 0.00 0.00 0.00 0.00 0.00 0.00 0.00 0.00 0.00 0.00
0.00 0.00 0.00 0.00 0.00 0.00 0.00 0.00 0.00 0.03 0.33 0.03 0.00 0.00 0.00 0.00 0.00 0.01 0.01 0.01 0.00 0.00 0.00 0.00 0.00 0.00 0.00 0.00 0.00 0.00 0.00 0.01 0.04 0.05 0.04 0.04 0.02 0.02 0.00 0.00 0.00 0.00 0.00 0.00 0.00 0.00 0.00 0.00 0.00
0.00 0.00 0.00 0.00 0.00 0.00 0.00 0.00 0.00 0.00 0.00 0.00 0.00 0.00 0.00 0.00 0.00 0.00 0.00 0.00 0.00 0.00 0.00 0.00 0.00 0.00 0.00 0.00 0.00 0.00 0.01 0.02 0.02 0.03 0.02 0.01 0.00 0.01 0.00 0.00 0.00 0.00 0.00 0.00 0.00 0.00 0.00 0.00 0.00
0.00 0.00 0.00 0.00 0.00 0.00 0.00 0.00 0.00 0.00 0.00 0.00 0.00 0.00 0.00 0.00 0.00 0.00 0.00 0.00 0.00 0.00 0.00 0.00 0.00 0.00 0.00 0.00 0.02 0.02 0.01 0.00 0.00 0.00 0.00 0.02 0.00 0.00 0.00 0.00 0.00 0.00 0.00 0.00 0.00 0.00 0.00 0.00 0.00
0.00 0.00 0.00 0.00 0.00 0.00 0.00 0.00 0.00 0.00 0.00 0.00 0.00 0.00 0.00 0.00 0.00 0.00 0.00 0.00 0.00 0.00 0.00 0.00 0.00 0.00 0.00 0.01 0.01 0.00 0.00 0.00 0.00 0.00 0.00 0.00 0.00 0.00 0.00 0.00 0.00 0.00 0.00 0.00 0.00 0.00 0.00 0.00 0.00
0.00 0.00 0.00 0.00 0.00 0.00 0.00 0.00 0.00 0.00 0.00 0.00 0.00 0.00 0.00 0.00 0.00 0.00 0.00 0.00 0.00 0.00 0.00 0.00 0.00 0.00 0.00 0.00 0.02 0.10 0.06 0.01 0.00 0.00 0.00 0.00 0.00 0.00 0.00 0.00 0.00 0.00 0.00 0.00 0.00 0.00 0.00 0.00 0.00
0.00 0.00 0.00 0.00 0.00 0.00 0.00 0.00 0.00 0.00 0.00 0.00 0.00 0.00 0.00 0.00 0.00 0.00 0.00 0.00 0.00 0.00 0.00 0.00 0.00 0.01 0.05 0.10 0.20 0.11 0.01 0.00 0.00 0.00 0.01 0.01 0.00 0.00 0.00 0.00 0.00 0.00 0.00 0.00 0.00 0.00 0.00 0.00 0.00
0.00 0.00 0.00 0.00 0.00 0.00 0.00 0.00 0.00 0.00 0.00 0.00 0.00 0.00 0.00 0.00 0.00 0.00 0.00 0.00 0.00 0.00 0.00 0.00 0.00 0.03 0.10 0.20 0.03 0.00 0.00 0.00 0.00 0.00 0.00 0.00 0.00 0.00 0.00 0.00 0.00 0.00 0.00 0.00 0.00 0.00 0.00 0.00 0.00
0.00 0.00 0.00 0.00 0.00 0.00 0.00 0.00 0.00 0.00 0.00 0.00 0.00 0.00 0.00 0.00 0.00 0.00 0.00 0.00 0.00 0.00 0.01 0.01 0.00 0.00 0.01 0.00 0.00 0.00 0.00 0.00 0.00 0.00 0.00 0.00 0.00 0.00 0.00 0.00 0.00 0.00 0.00 0.00 0.00 0.00 0.00 0.00 0.00
0.00 0.00 0.00 0.00 0.00 0.00 0.00 0.00 0.00 0.00 0.00 0.00 0.00 0.00 0.00 0.00 0.00 0.00 0.00 0.00 0.00 0.00 0.00 0.00 0.00 0.02 0.04 0.02 0.01 0.00 0.00 0.00 0.00 0.00 0.00 0.00 0.00 0.00 0.00 0.00 0.00 0.00 0.00 0.00 0.00 0.00 0.00 0.00 0.00
0.00 0.00 0.00 0.00 0.00 0.00 0.00 0.00 0.00 0.00 0.00 0.00 0.00 0.00 0.00 0.00 0.00 0.00 0.00 0.00 0.00 0.00 0.00 0.01 0.01 0.02 0.00 0.00 0.00 0.00 0.00 0.00 0.00 0.00 0.00 0.00 0.00 0.00 0.00 0.00 0.00 0.00 0.00 0.00 0.00 0.00 0.00 0.00 0.00
0.00 0.00 0.00 0.00 0.00 0.00 0.00 0.00 0.00 0.00 0.00 0.00 0.00 0.00 0.00 0.00 0.00 0.00 0.00 0.00 0.00 0.00 0.00 0.01 0.01 0.00 0.00 0.00 0.00 0.00 0.00 0.00 0.00 0.00 0.00 0.00 0.00 0.00 0.00 0.00 0.00 0.00 0.00 0.00 0.00 0.00 0.00 0.00 0.00
0.00 0.00 0.00 0.00 0.00 0.00 0.00 0.00 0.01 0.00 0.00 0.00 0.00 0.00 0.00 0.00 0.00 0.00 0.00 0.00 0.00 0.00 0.00 0.00 0.00 0.00 0.00 0.00 0.00 0.00 0.00 0.00 0.00 0.00 0.00 0.00 0.00 0.00 0.00 0.00 0.00 0.00 0.00 0.00 0.00 0.00 0.00 0.00 0.00
0.00 0.00 0.00 0.00 0.00 0.00 0.00 0.00 0.00 0.00 0.00 0.00 0.00 0.00 0.00 0.00 0.00 0.00 0.00 0.00 0.00 0.00 0.00 0.00 0.00 0.00 0.00 0.00 0.00 0.00 0.00 0.00 0.00 0.00 0.00 0.00 0.00 0.00 0.00 0.00 0.00 0.00 0.00 0.00 0.00 0.00 0.00 0.00 0.00
0.00 0.00 0.00 0.00 0.00 0.00 0.00 0.00 0.00 0.00 0.00 0.00 0.00 0.00 0.00 0.00 0.00 0.00 0.00 0.00 0.00 0.00 0.00 0.00 0.00 0.00 0.00 0.00 0.00 0.00 0.00 0.00 0.00 0.00 0.00 0.00 0.00 0.00 0.00 0.00 0.00 0.00 0.00 0.00 0.00 0.00 0.00 0.00 0.00
0.00 0.00 0.00 0.00 0.00 0.00 0.00 0.00 0.00 0.00 0.00 0.00 0.00 0.00 0.00 0.00 0.00 0.00 0.00 0.00 0.00 0.00 0.00 0.00 0.00 0.00 0.00 0.00 0.00 0.00 0.00 0.00 0.00 0.00 0.00 0.00 0.00 0.00 0.00 0.00 0.00 0.00 0.00 0.00 0.00 0.00 0.01 0.02 0.03
0.00 0.00 0.00 0.00 0.00 0.00 0.00 0.00 0.00 0.00 0.00 0.00 0.00 0.00 0.00 0.00 0.00 0.00 0.00 0.00 0.00 0.00 0.00 0.00 0.00 0.00 0.00 0.00 0.00 0.00 0.00 0.00 0.00 0.00 0.00 0.00 0.00 0.00 0.00 0.00 0.00 0.00 0.00 0.00 0.00 0.01 0.01 0.02 0.04
0.00 0.00 0.00 0.00 0.00 0.00 0.00 0.00 0.00 0.00 0.00 0.00 0.00 0.00 0.00 0.00 0.00 0.00 0.00 0.00 0.00 0.00 0.00 0.00 0.00 0.00 0.00 0.00 0.00 0.00 0.00 0.00 0.00 0.00 0.00 0.00 0.00 0.00 0.00 0.00 0.00 0.00 0.00 0.00 0.00 0.00 0.01 0.03 0.03
0.00 0.00 0.00 0.00 0.00 0.00 0.00 0.00 0.00 0.00 0.00 0.00 0.00 0.00 0.00 0.00 0.00 0.00 0.00 0.00 0.00 0.00 0.00 0.00 0.00 0.00 0.00 0.00 0.00 0.00 0.00 0.00 0.00 0.00 0.00 0.00 0.00 0.00 0.00 0.00 0.00 0.00 0.00 0.00 0.00 0.01 0.02 0.03 0.01
0.00 0.00 0.00 0.00 0.00 0.00 0.00 0.00 0.00 0.00 0.00 0.00 0.00 0.00 0.00 0.00 0.00 0.00 0.00 0.00 0.00 0.00 0.00 0.00 0.00 0.00 0.00 0.00 0.00 0.00 0.00 0.00 0.00 0.00 0.00 0.00 0.00 0.00 0.00 0.00 0.00 0.00 0.00 0.00 0.00 0.01 0.01 0.00 0.00
MSLP
1012.16 1011.51 1010.29 1009.19 1007.93 1005.42 1003.36 1001.91 1002.23 1005.22 1006.21 1007.67 1007.72 1007.51 1007.94 1008.57 1008.51 1009.70 1011.26 1011.59 1012.19 1013.23 1014.33 1015.45 1015.88 1016.20 1016.43 1017.08 1017.53 1017.72 1018.06 1018.36 1018.74 1019.03 1019.29 1019.35 1019.48 1019.56 1019.57 1019.66 1019.79 1019.73 1019.90 1019.93 1020.07 1020.22 1020.14 1019.93 1019.86
1010.53 1010.16 1009.47 1007.52 1006.18 1003.53 1001.76 1001.56 1003.16 1005.47 1007.20 1008.56 1008.50 1008.43 1008.57 1009.52 1010.56 1011.55 1012.29 1012.46 1012.63 1013.60 1014.83 1015.52 1016.01 1016.68 1016.89 1017.34 1017.75 1017.98 1018.34 1018.70 1019.17 1019.43 1019.64 1019.83 1019.84 1020.05 1020.09 1020.20 1020.37 1020.21 1020.27 1020.40 1020.57 1020.63 1020.54 1020.39 1020.31
1010.98 1009.83 1008.19 1006.26 1004.83 1003.04 1002.05 1002.85 1004.62 1006.31 1007.66 1007.41 1008.53 1009.08 1010.16 1010.70 1011.33 1011.93 1012.65 1013.11 1013.48 1014.12 1015.04 1015.53 1016.19 1016.85 1017.15 1017.70 1018.01 1018.40 1018.63 1019.28 1019.46 1019.80 1020.06 1020.31 1020.41 1020.55 1020.60 1020.58 1020.62 1020.65 1020.74 1020.81 1020.97 1021.07 1020.88 1020.73 1020.71
1009.96 1009.05 1007.92 1005.65 1003.44 1002.42 1003.07 1004.88 1005.58 1006.43 1006.80 1007.55 1008.68 1009.45 1010.79 1011.69 1011.79 1012.24 1012.77 1013.43 1013.95 1014.23 1014.82 1016.35 1016.81 1016.96 1017.30 1017.96 1018.36 1018.73 1019.10 1019.58 1019.86 1020.18 1020.37 1020.72 1020.75 1021.04 1020.94 1020.98 1021.02 1021.04 1021.05 1021.29 1021.20 1021.21 1021.12 1021.09 1021.11
1009.23 1007.39 1005.88 1004.40 1003.34 1002.82 1003.72 1004.84 1006.06 1005.68 1007.12 1006.59 1007.32 1009.10 1010.54 1010.96 1012.00 1012.55 1012.98 1013.65 1014.43 1015.10 1015.13 1016.60 1017.02 1017.15 1017.57 1018.32 1018.64 1019.04 1019.42 1019.79 1020.17 1020.52 1020.73 1021.03 1021.04 1021.21 1021.11 1021.42 1021.48 1021.67 1021.59 1021.67 1021.53 1021.25 1021.38 1021.26 1021.42
1007.87 1006.66 1005.00 1003.37 1002.52 1003.16 1004.09 1004.14 1004.96 1006.56 1006.50 1007.53 1007.60 1008.78 1010.34 1011.02 1012.01 1012.54 1013.29 1014.60 1015.19 1015.86 1015.71 1015.98 1017.06 1017.47 1017.84 1018.30 1018.81 1019.35 1019.67 1020.04 1020.46 1020.81 1021.17 1021.33 1021.43 1021.64 1021.58 1021.75 1021.96 1022.00 1022.05 1022.05 1021.90 1021.64 1021.75 1021.76 1021.22
1007.26 1005.67 1004.51 1003.08 1002.74 1003.65 1004.02 1005.20 1004.59 1006.09 1007.41 1007.90 1008.03 1009.17 1010.49 1011.21 1011.86 1012.89 1013.98 1014.63 1014.99 1016.45 1016.29 1015.60 1017.12 1017.65 1018.26 1018.91 1019.28 1019.79 1019.85 1020.32 1020.65 1021.19 1021.54 1021.68 1021.70 1021.93 1022.01 1022.02 1022.10 1022.21 1022.22 1022.33 1022.03 1021.94 1021.91 1021.80 1021.57
1006.84 1005.79 1004.22 1003.64 1004.03 1005.16 1004.58 1005.49 1006.41 1006.67 1008.77 1008.56 1008.93 1010.49 1009.65 1010.77 1011.96 1013.15 1014.38 1015.15 1016.58 1016.23 1015.65 1016.29 1017.01 1017.46 1018.40 1019.11 1019.92 1020.08 1020.31 1020.75 1021.08 1021.44 1021.80 1021.82 1021.90 1021.90 1022.17 1022.17 1022.21 1022.53 1022.51 1022.34 1022.22 1022.17 1022.07 1021.78 1021.55
1007.31 1005.95 1003.92 1003.45 1004.69 1004.85 1005.16 1005.64 1007.27 1007.64 1008.32 1008.89 1009.67 1009.64 1009.41 1011.25 1012.55 1013.19 1014.51 1014.77 1015.44 1015.73 1015.94 1016.36 1016.63 1017.30 1018.16 1019.16 1020.13 1020.46 1020.64 1021.05 1021.13 1021.43 1021.89 1021.52 1020.95 1021.37 1021.65 1022.34 1022.44 1022.61 1022.58 1022.45 1022.40 1022.20 1021.94 1021.47 1021.49
1006.79 1005.34 1003.52 1003.33 1004.89 1005.75 1004.57 1005.80 1007.23 1008.18 1009.15 1010.17 1010.19 1010.06 1010.76 1011.92 1012.81 1013.31 1014.02 1015.18 1015.45 1016.03 1016.41 1016.53 1017.13 1017.78 1017.96 1018.57 1019.29 1019.68 1020.08 1020.20 1020.52 1020.41 1021.14 1020.43 1021.04 1021.26 1021.46 1021.97 1022.45 1022.54 1022.54 1022.38 1022.23 1022.10 1021.71 1021.44 1020.90
1006.41 1005.05 1004.21 1004.14 1004.82 1006.16 1005.58 1006.15 1007.36 1008.39 1009.51 1008.87 1009.23 1010.78 1011.73 1012.29 1012.91 1013.50 1014.01 1014.82 1015.56 1016.31 1016.83 1017.14 1017.68 1017.87 1018.43 1018.74 1018.83 1018.95 1019.47 1019.79 1020.28 1020.69 1020.81 1020.92 1021.03 1020.94 1021.15 1021.07 1021.33 1021.56 1022.01 1021.46 1021.54 1021.28 1021.16 1021.69 1021.58
1005.86 1005.29 1005.18 1004.51 1005.09 1005.30 1005.60 1006.26 1007.14 1008.88 1012.81 1010.19 1009.18 1011.07 1011.83 1012.48 1012.96 1013.24 1013.88 1014.76 1015.66 1016.21 1016.55 1016.87 1017.63 1018.36 1018.34 1018.53 1018.54 1019.05 1019.30 1019.83 1020.76 1021.07 1021.15 1021.40 1020.99 1021.29 1021.17 1020.94 1021.19 1021.61 1021.34 1021.55 1021.29 1021.27 1021.65 1021.62 1021.52
1005.97 1005.32 1005.46 1005.58 1005.28 1005.67 1006.44 1006.16 1006.67 1007.29 1007.94 1008.17 1009.84 1011.12 1011.67 1012.14 1012.30 1012.89 1013.38 1014.15 1015.33 1015.45 1016.31 1017.14 1017.97 1018.41 1018.61 1018.75 1019.15 1019.18 1019.88 1020.79 1020.64 1021.02 1021.69 1021.55 1021.67 1021.69 1021.84 1021.80 1021.89 1022.02 1021.76 1021.56 1021.57 1021.45 1021.53 1021.61 1021.40
1005.72 1005.73 1005.54 1005.89 1005.83 1006.21 1006.09 1006.20 1006.42 1007.36 1007.76 1008.87 1009.79 1010.41 1011.12 1011.48 1011.74 1012.59 1013.20 1013.94 1014.85 1015.38 1016.38 1017.40 1017.93 1018.56 1018.72 1019.14 1019.82 1020.43 1020.81 1021.29 1021.59 1021.62 1022.01 1022.31 1022.33 1021.97 1022.51 1022.88 1023.02 1022.40 1022.18 1022.28 1022.28 1022.26 1022.26 1021.97 1021.76
1006.26 1006.07 1006.12 1006.17 1006.40 1006.87 1006.98 1006.27 1007.13 1007.92 1008.08 1009.25 1009.67 1010.31 1010.79 1011.39 1012.06 1012.76 1013.32 1014.08 1014.61 1015.50 1016.55 1017.30 1017.78 1018.28 1018.77 1019.85 1020.46 1020.93 1021.56 1022.03 1022.16 1022.20 1022.29 1022.59 1022.73 1022.58 1022.73 1023.06 1023.35 1022.94 1023.30 1023.28 1023.01 1022.81 1022.58 1022.00 1021.70
1006.31 1005.96 1005.55 1006.14 1006.37 1006.26 1006.48 1006.29 1007.73 1008.03 1008.20 1008.69 1009.45 1010.14 1010.79 1011.73 1012.14 1012.77 1013.32 1013.96 1014.45 1015.23 1016.56 1017.59 1018.05 1018.76 1019.03 1020.16 1021.04 1021.65 1021.84 1022.03 1022.10 1022.45 1022.65 1023.29 1023.21 1022.66 1023.18 1023.53 1023.65 1023.82 1023.48 1023.09 1022.88 1022.75 1022.47 1022.30 1022.09
1006.17 1005.38 1005.38 1006.07 1005.99 1005.97 1006.26 1006.61 1007.91 1008.41 1008.25 1008.73 1009.66 1010.40 1010.95 1011.93 1012.39 1013.01 1013.58 1014.03 1014.49 1015.38 1016.87 1017.94 1018.66 1019.41 1020.26 1020.88 1021.01 1021.15 1022.04 1022.00 1022.29 1022.89 1023.20 1023.31 1023.01 1023.21 1023.41 1023.47 1023.55 1023.63 1023.26 1023.18 1023.06 1022.99 1022.95 1022.62 1022.34
1005.78 1004.94 1005.17 1005.24 1005.77 1005.59 1005.84 1006.44 1007.50 1008.06 1008.25 1008.65 1009.29 1010.17 1010.96 1011.85 1012.62 1013.43 1013.81 1014.02 1014.42 1015.46 1017.06 1017.96 1018.89 1019.84 1020.48 1020.79 1021.09 1021.58 1022.14 1022.36 1022.70 1022.87 1022.83 1022.86 1022.95 1023.21 1023.10 1023.37 1023.73 1023.64 1023.30 1023.19 1023.43 1023.55 1023.29 1023.03 1022.60
1005.10 1005.05 1004.58 1005.24 1006.20 1005.83 1005.94 1006.39 1007.27 1007.86 1008.16 1008.64 1009.13 1009.92 1010.74 1011.59 1012.68 1014.03 1014.33 1014.65 1014.97 1016.15 1017.52 1018.26 1019.14 1019.72 1020.15 1020.22 1020.46 1020.95 1021.40 1021.85 1022.06 1022.15 1022.69 1022.81 1023.05 1023.20 1023.16 1023.04 1023.32 1023.63 1023.69 1023.69 1023.72 1023.73 1023.57 1023.27 1023.00
1005.20 1004.97 1004.97 1006.00 1006.52 1006.56 1006.32 1006.43 1007.45 1008.04 1008.10 1008.47 1009.04 1009.74 1010.49 1011.44 1013.05 1013.95 1014.56 1015.06 1015.51 1016.86 1017.86 1018.32 1018.84 1019.48 1019.63 1019.82 1019.97 1020.01 1020.63 1021.11 1021.37 1022.15 1022.70 1022.81 1023.00 1023.10 1023.18 1023.80 1023.80 1023.88 1023.89 1023.83 1023.77 1023.79 1023.81 1023.51 1023.35
1005.37 1005.04 1005.23 1005.54 1006.45 1006.60 1006.06 1005.94 1007.22 1007.91 1008.27 1008.84 1009.06 1009.54 1010.22 1011.15 1012.72 1013.77 1014.42 1015.65 1016.53 1017.26 1018.03 1018.21 1018.60 1019.00 1018.89 1018.90 1019.43 1019.76 1020.24 1021.25 1021.55 1021.89 1022.20 1022.87 1023.18 1023.26 1023.54 1023.82 1023.99 1024.04 1024.00 1023.79 1023.82 1023.87 1024.06 1023.83 1023.69
1005.51 1005.72 1005.84 1005.83 1006.09 1005.52 1005.85 1004.96 1005.96 1007.45 1008.00 1008.88 1009.52 1009.84 1010.39 1011.46 1012.40 1013.24 1014.15 1015.90 1016.74 1017.33 1017.87 1017.96 1018.37 1018.27 1018.73 1019.18 1019.31 1019.83 1019.86 1020.35 1020.95 1021.77 1022.39 1022.55 1023.43 1023.53 1023.61 1023.74 1023.96 1024.02 1024.02 1023.94 1023.83 1023.71 1024.18 1024.20 1023.63
1007.03 1006.35 1006.10 1005.93 1005.35 1005.27 1005.36 1005.38 1006.52 1007.39 1007.20 1007.91 1008.89 1009.86 1010.89 1011.68 1012.25 1012.97 1013.69 1014.94 1016.38 1017.17 1017.43 1017.31 1017.86 1018.47 1019.18 1019.35 1019.66 1020.01 1020.35 1021.17 1021.80 1022.36 1022.86 1022.89 1022.96 1023.07 1023.24 1023.45 1023.61 1023.94 1023.93 1023.78 1023.86 1024.05 1024.16 1024.12 1023.98
1006.86 1006.69 1006.70 1006.45 1005.73 1005.31 1004.97 1005.06 1004.48 1005.24 1005.63 1007.06 1008.58 1009.74 1010.73 1011.43 1012.20 1012.99 1013.95 1014.72 1015.70 1016.63 1017.17 1017.77 1018.23 1018.81 1019.36 1019.76 1020.19 1020.58 1021.11 1021.53 1021.90 1022.55 1022.84 1022.70 1022.88 1022.91 1023.13 1023.48 1023.86 1023.88 1023.67 1023.52 1023.55 1023.63 1023.96 1024.11 1024.28
1006.86 1006.60 1006.24 1006.31 1006.03 1005.81 1005.64 1005.31 1004.75 1004.40 1005.49 1006.16 1008.31 1009.62 1010.68 1011.54 1012.33 1013.24 1014.23 1014.91 1015.79 1016.74 1017.50 1017.99 1018.36 1019.09 1019.80 1020.30 1020.71 1021.25 1021.74 1022.04 1022.69 1022.70 1022.72 1023.08 1023.01 1023.15 1023.49 1023.98 1024.06 1023.87 1023.60 1023.34 1023.07 1023.72 1024.01 1023.88 1023.81
1006.78 1006.46 1006.63 1006.47 1006.67 1005.99 1006.08 1005.31 1004.41 1005.16 1005.97 1006.58 1008.21 1009.60 1010.67 1011.58 1012.52 1013.37 1014.16 1014.87 1015.84 1016.78 1017.47 1017.92 1018.48 1019.14 1019.90 1020.50 1021.12 1021.83 1022.24 1022.46 1022.42 1022.79 1023.18 1023.19 1023.34 1023.48 1023.82 1023.99 1023.95 1023.70 1023.46 1023.08 1023.19 1023.43 1023.47 1023.47 1023.53
1006.82 1007.40 1007.45 1007.52 1008.47 1007.93 1006.37 1004.96 1005.24 1006.07 1006.48 1007.00 1008.10 1009.37 1010.44 1011.41 1012.34 1013.17 1013.97 1014.79 1015.70 1016.61 1017.30 1017.81 1018.34 1019.09 1020.01 1020.74 1021.44 1022.01 1022.44 1022.66 1022.66 1023.16 1023.31 1023.18 1023.42 1023.47 1023.64 1023.93 1023.82 1023.59 1023.34 1023.01 1022.98 1023.10 1023.11 1023.03 1022.77
1007.85 1007.59 1007.85 1008.15 1008.09 1007.36 1005.26 1004.78 1004.14 1005.77 1006.35 1007.05 1007.76 1008.90 1010.04 1011.06 1012.00 1012.83 1013.61 1014.60 1015.50 1016.42 1017.24 1017.78 1018.26 1019.11 1020.38 1021.10 1021.75 1022.20 1022.49 1022.69 1022.70 1023.01 1023.11 1023.18 1023.36 1023.67 1023.84 1023.86 1023.71 1023.53 1023.31 1022.98 1022.68 1022.81 1022.79 1022.71 1022.91
1007.71 1007.72 1008.04 1007.99 1008.14 1007.82 1006.70 1005.18 1005.49 1005.82 1006.30 1006.98 1007.50 1008.36 1009.51 1010.46 1011.42 1012.47 1013.32 1014.38 1015.38 1016.22 1017.10 1017.85 1018.40 1019.41 1020.50 1021.03 1021.68 1021.96 1022.25 1022.19 1022.51 1022.67 1022.73 1022.97 1023.28 1023.53 1023.60 1023.54 1023.44 1023.21 1022.91 1022.58 1022.64 1023.08 1023.03 1023.00 1022.65
1007.37 1007.13 1007.59 1008.11 1008.20 1008.48 1008.08 1006.59 1006.41 1006.47 1006.43 1006.90 1007.39 1007.89 1008.87 1009.75 1010.60 1011.69 1012.98 1014.02 1015.01 1015.91 1016.86 1017.70 1018.68 1019.43 1020.33 1021.03 1021.54 1021.72 1021.50 1021.68 1021.89 1022.05 1022.22 1022.63 1022.93 1023.06 1023.10 1023.10 1022.87 1022.62 1022.42 1022.56 1023.01 1022.95 1023.26 1023.22 1022.83
Thickness
5711 5718 5730 5729 5712 5731 5736 5762 5774 5724 5727 5730 5735 5731 5722 5725 5719 5706 5725 5726 5721 5714 5702 5693 5691 5691 5688 5681 5676 5674 5671 5668 5665 5664 5663 5663 5663 5663 5663 5663 5661 5661 5659 5658 5656 5652 5651 5653 5652
5718 5723 5726 5728 5710 5725 5755 5777 5744 5727 5725 5720 5723 5722 5720 5706 5717 5709 5710 5714 5712 5703 5691 5685 5685 5677 5678 5675 5669 5668 5665 5662 5658 5657 5657 5656 5657 5656 5657 5656 5654 5654 5653 5650 5647 5646 5646 5647 5646
5711 5722 5714 5717 5719 5726 5747 5747 5730 5724 5723 5725 5713 5719 5703 5699 5708 5707 5708 5706 5701 5694 5684 5681 5676 5670 5671 5666 5664 5661 5659 5653 5653 5651 5650 5650 5651 5650 5649 5650 5649 5648 5646 5644 5641 5640 5641 5642 5641
5709 5713 5716 5707 5722 5752 5743 5726 5726 5721 5727 5725 5712 5695 5700 5702 5700 5706 5707 5703 5695 5691 5682 5666 5663 5663 5664 5659 5655 5654 5652 5648 5646 5645 5646 5646 5647 5644 5645 5645 5644 5643 5641 5637 5638 5637 5637 5636 5634
5711 5717 5705 5713 5726 5743 5740 5730 5727 5728 5714 5723 5723 5695 5691 5706 5703 5701 5702 5699 5690 5681 5675 5659 5657 5655 5655 5651 5650 5649 5646 5644 5642 5642 5643 5642 5643 5641 5642 5638 5637 5634 5633 5632 5633 5635 5632 5631 5628
5698 5715 5703 5716 5737 5736 5735 5743 5736 5714 5712 5710 5710 5701 5690 5705 5696 5697 5697 5684 5681 5675 5670 5661 5652 5650 5649 5649 5646 5645 5643 5642 5640 5638 5637 5637 5636 5635 5635 5633 5630 5629 5628 5627 5628 5628 5625 5623 5627
5695 5707 5706 5731 5730 5720 5729 5731 5721 5717 5708 5702 5711 5687 5688 5693 5696 5693 5689 5684 5680 5668 5663 5661 5649 5645 5643 5642 5643 5641 5643 5639 5637 5633 5631 5631 5631 5629 5628 5628 5626 5624 5623 5621 5622 5622 5620 5620 5620
5706 5708 5709 5722 5709 5690 5725 5720 5718 5713 5681 5702 5709 5667 5683 5693 5694 5688 5682 5679 5666 5654 5655 5653 5647 5644 5642 5640 5637 5638 5637 5634 5632 5630 5626 5626 5626 5626 5623 5622 5621 5617 5617 5618 5617 5617 5614 5615 5615
5708 5692 5704 5721 5702 5703 5721 5709 5709 5712 5697 5695 5693 5690 5700 5692 5684 5683 5676 5670 5659 5663 5652 5648 5648 5647 5644 5639 5634 5632 5632 5630 5630 5627 5622 5626 5628 5624 5622 5617 5616 5612 5612 5612 5610 5610 5609 5611 5610
5693 5696 5719 5735 5714 5690 5716 5710 5701 5693 5674 5674 5681 5692 5689 5683 5676 5674 5671 5660 5652 5652 5651 5651 5646 5642 5645 5642 5638 5636 5634 5633 5629 5630 5623 5628 5623 5620 5618 5614 5609 5608 5607 5608 5607 5605 5606 5606 5605
5696 5695 5717 5723 5723 5706 5708 5706 5701 5688 5677 5683 5683 5674 5674 5675 5674 5669 5668 5662 5657 5651 5647 5646 5644 5644 5641 5640 5642 5641 5635 5632 5627 5623 5623 5621 5618 5619 5615 5613 5611 5608 5606 5608 5606 5606 5604 5597 5595
5689 5705 5708 5720 5719 5715 5707 5708 5696 5675 5630 5660 5695 5679 5675 5669 5669 5670 5667 5662 5657 5654 5654 5653 5645 5639 5643 5642 5641 5635 5632 5628 5620 5618 5616 5611 5615 5612 5610 5610 5607 5602 5602 5600 5601 5598 5594 5591 5589
5689 5701 5706 5709 5715 5711 5704 5702 5704 5693 5698 5705 5689 5680 5677 5674 5676 5675 5674 5671 5661 5661 5655 5650 5643 5641 5639 5637 5632 5631 5625 5617 5618 5614 5607 5608 5606 5604 5602 5599 5595 5591 5594 5593 5590 5588 5585 5583 5582
5699 5699 5701 5702 5703 5700 5699 5701 5704 5699 5705 5693 5687 5684 5682 5680 5681 5677 5674 5669 5664 5663 5655 5647 5643 5637 5636 5631 5625 5620 5615 5610 5607 5607 5603 5599 5596 5597 5591 5586 5585 5586 5584 5579 5576 5573 5570 5571 5570
5693 5683 5690 5692 5694 5685 5693 5691 5684 5695 5700 5686 5686 5684 5683 5680 5679 5673 5672 5666 5665 5659 5653 5647 5645 5639 5634 5625 5617 5612 5606 5599 5601 5600 5596 5591 5590 5590 5583 5579 5575 5575 5569 5564 5562 5560 5559 5562 5561
5681 5687 5678 5689 5691 5699 5696 5680 5685 5697 5695 5689 5687 5684 5682 5677 5678 5676 5673 5669 5667 5661 5650 5644 5641 5634 5630 5619 5613 5607 5602 5598 5595 5589 5589 5581 5577 5582 5574 5567 5563 5558 5557 5557 5555 5552 5552 5550 5549
5678 5671 5680 5676 5699 5699 5695 5680 5685 5692 5694 5687 5683 5679 5679 5673 5674 5673 5671 5668 5666 5661 5649 5640 5635 5627 5619 5614 5612 5607 5596 5591 5589 5581 5577 5574 5572 5567 5561 5558 5556 5551 5550 5548 5546 5542 5538 5537 5536
5663 5681 5687 5683 5693 5703 5695 5688 5689 5693 5693 5689 5686 5682 5678 5672 5668 5667 5667 5669 5667 5660 5647 5639 5630 5620 5613 5609 5605 5598 5592 5587 5579 5574 5571 5567 5562 5557 5555 5551 5546 5542 5541 5537 5530 5525 5522 5521 5521
5694 5689 5695 5694 5692 5694 5692 5689 5687 5692 5692 5687 5687 5683 5679 5674 5670 5661 5662 5662 5660 5651 5638 5631 5622 5616 5611 5609 5604 5597 5588 5581 5575 5571 5564 5560 5555 5552 5548 5543 5537 5530 5525 5520 5517 5513 5510 5508 5506
5692 5689 5689 5687 5689 5686 5688 5686 5686 5686 5689 5690 5686 5682 5679 5675 5663 5659 5656 5655 5652 5640 5632 5627 5621 5614 5611 5607 5601 5596 5587 5578 5573 5564 5558 5553 5546 5541 5535 5527 5522 5518 5514 5510 5504 5501 5497 5494 5490
5688 5688 5686 5685 5685 5688 5692 5688 5679 5685 5688 5686 5689 5689 5683 5676 5662 5656 5655 5645 5639 5632 5626 5624 5619 5614 5613 5609 5600 5593 5585 5574 5569 5563 5557 5545 5538 5532 5525 5518 5513 5507 5501 5498 5493 5486 5480 5476 5471
5675 5691 5687 5685 5677 5670 5694 5675 5686 5682 5680 5677 5677 5680 5678 5671 5667 5662 5655 5639 5633 5629 5624 5622 5617 5615 5609 5603 5598 5588 5584 5576 5569 5558 5548 5540 5529 5521 5515 5509 5502 5495 5489 5484 5478 5472 5463 5457 5455
5655 5686 5686 5688 5688 5674 5686 5681 5656 5680 5681 5681 5680 5676 5670 5667 5665 5659 5655 5646 5634 5626 5623 5624 5618 5610 5602 5598 5591 5584 5576 5565 5556 5545 5534 5528 5522 5517 5510 5502 5494 5485 5478 5473 5466 5459 5451 5441 5433
5684 5679 5679 5684 5688 5664 5691 5685 5696 5688 5694 5687 5680 5674 5669 5666 5662 5657 5651 5644 5636 5629 5622 5616 5610 5603 5596 5589 5582 5573 5564 5555 5546 5535 5526 5522 5514 5507 5499 5489 5479 5472 5468 5463 5455 5445 5433 5423 5412
5679 5673 5656 5648 5656 5652 5684 5677 5689 5712 5699 5696 5677 5670 5666 5662 5656 5649 5641 5636 5630 5621 5614 5609 5604 5594 5586 5577 5569 5560 5550 5542 5531 5525 5519 5510 5504 5496 5486 5476 5468 5462 5456 5451 5445 5430 5417 5407 5396
5671 5678 5655 5637 5645 5664 5678 5663 5692 5700 5696 5695 5681 5670 5663 5657 5651 5644 5639 5633 5625 5616 5609 5604 5597 5587 5577 5568 5558 5546 5537 5531 5525 5517 5507 5500 5492 5483 5474 5466 5458 5453 5447 5440 5428 5417 5404 5391 5377
5669 5654 5675 5656 5640 5636 5665 5689 5693 5686 5683 5684 5676 5668 5660 5654 5649 5642 5637 5631 5622 5613 5605 5598 5591 5581 5569 5557 5546 5536 5527 5519 5513 5504 5496 5490 5481 5472 5464 5454 5447 5440 5432 5424 5414 5402 5390 5379 5366
5661 5673 5648 5650 5624 5630 5677 5679 5691 5676 5675 5677 5674 5667 5661 5655 5648 5642 5636 5628 5619 5610 5600 5592 5584 5572 5557 5546 5536 5526 5517 5510 5504 5495 5487 5479 5469 5459 5450 5441 5434 5427 5419 5411 5402 5391 5378 5365 5347
5654 5652 5655 5658 5652 5634 5640 5673 5688 5681 5680 5674 5675 5671 5662 5655 5648 5640 5633 5624 5613 5604 5593 5583 5574 5561 5547 5538 5527 5518 5510 5505 5495 5486 5478 5468 5457 5447 5438 5430 5423 5416 5408 5400 5388 5371 5357 5341 5329
5665 5663 5660 5636 5639 5640 5636 5651 5681 5679 5681 5678 5674 5672 5665 5658 5651 5641 5629 5619 5607 5596 5585 5576 5562 5551 5538 5527 5516 5509 5505 5497 5488 5479 5469 5458 5447 5438 5429 5421 5414 5407 5397 5387 5371 5357 5337 5321 5308